Location: ??? ?????
(30.6482°N, 60.5850°E)
Time: 18:17:27
(UTC+00:00)

Palapa 6 Rocket - Pass Details

Date: 09 April 2020
Orbit: 485 x 1217 km, 22.7° (Epoch: 05 June)

Event Time Altitude Azimuth Distance (km) Brightness Sun altitude
Exits shadow 23:54:24 22° 158° (SSE) 1,118 4.3 -21.7°
Drops below altitude 10° 23:56:36 10° 126° (SE) 1,708 5.7 -21.2°
Sets 23:59:13 0° 113° (ESE) 2,663 7.0 -20.7°
